Regional Weather Roundup
Issued by NWS

Home | Current Version | Previous Version | Text Only | Print | Product List | Glossary On
Versions: 1 2 3 4 5 6 7 8 9 10 11 12 13 14 15 16 17 18 19 20 21 22 23 24 25 26 27 28 29 30 31 32 33 34 35 36 37 38 39 40 41 42 43 44 45 46 47 48 49 50
000
ASCA44 KEWX 221320
RWRMX

LATIN AMERICA AND CARIBBEAN REGIONAL WEATHER ROUNDUP
NATIONAL WEATHER SERVICE AUSTIN/SAN ANTONIO TX
800 AM CDT TUE JUL 22 2014

NOTE: "FAIR" INDICATED FEW OR NO CLOUDS BELOW 12,000 FEET WITH NO
SIGNIFICANT WEATHER AND/OR OBSTRUCTIONS TO VISIBILITY.

BAJA CALIFORNIA

CITY           SKY/WX    TMP DP  RH WIND       PRES   REMARKS
LORETO         PTCLDY    90  70  51 CALM      29.83  HX  95
TIJUANA        CLOUDY    66  59  77 N6        30.05S

NORTHWESTERN MEXICO

CITY           SKY/WX    TMP DP  RH WIND       PRES   REMARKS
DURANGO        PTCLDY    55  54  94 CALM      30.32R
CD. JUAREZ     MOCLDY    79  46  31 SW12      30.10
LOS MOCHIS     MOCLDY    82  73  74 N3        29.87

NORTHEASTERN MEXICO

CITY           SKY/WX    TMP DP  RH WIND       PRES   REMARKS
CHIHUAHUA      MOCLDY    66  52  59 SE7       30.20
MATAMOROS      MOSUNNY   79  79 100 E6        29.99  FOG
MONCLOVA       PTSUNNY   75  55  50 S8        30.04
MONTERREY      PTSUNNY   77  70  78 CALM      30.00R
NUEVO LAREDO   MOSUNNY   81  75  83 SE8       29.99
PIEDRAS NEGRAS MOSUNNY   77  72  83 SE7       30.02
REYNOSA        PTSUNNY   77  73  88 SE5       29.98
SALTILLO       SUNNY     68  54  60 CALM      30.22F
TORREON        MOCLDY    72  61  68 CALM      30.15R
CD. VICTORIA   SUNNY     77  75  94 S7        29.99

WESTERN MEXICO

CITY           SKY/WX    TMP DP  RH WIND       PRES   REMARKS
AGUASCALIENTES CLEAR     54  48  82 NE2       30.34
COLIMA         PTCLDY    75  68  78 N9        30.03R
DEL BAJIO      CLEAR     57  52  82 CALM      30.34R
GUADALAJARA    CLEAR     59  55  88 CALM      30.22
MANZANILLO     PTCLDY    77  68  73 N6        29.86
MAZATLAN       CLEAR     77  68  73 N7        29.86R
P. VALLARTA    CLEAR     81  77  89 CALM      29.86S
URUAPAN        CLEAR     61  59  94 CALM      30.23R
ZACATECAS      CLEAR     52  43  71 CALM      30.37R

CENTRAL MEXICO

CITY           SKY/WX    TMP DP  RH WIND       PRES   REMARKS
CUERNAVACA     MOSUNNY   66  55  68 N2        30.20
MEXICO CITY    MOSUNNY   57  50  77 E6        30.40R
MORELIA        CLEAR     55  55 100 CALM      30.29
POZA RICA      FOG       77  77 100 NW8       30.04R VSB 1/2
PUEBLA         SUNNY     54  48  82 NW5       30.42R
QUERETARO      CLEAR     55  54  94 E5        30.36R
S. LUIS POTOSI CLEAR     55  52  88 NW5       30.33R
TAMPICO        SUNNY     81  77  89 CALM      30.00R
TOLUCA         PTCLDY    46  45  93 CALM      30.47R

SOUTHERN MEXICO

CITY           SKY/WX    TMP DP  RH WIND       PRES   REMARKS
ACAPULCO       CLEAR     81  77  89 CALM      29.87R
B. DE HUATULCO MOSUNNY   77  70  78 CALM      29.89
OAXACA         MOSUNNY   59  52  77 N7        30.29R
P. ESCONDIDO   SUNNY     75  70  83 E16       29.90F
VERACRUZ       SUNNY     79  77  94 CALM      29.98R
ZIHUATANEJO    PTCLDY    79  73  83 CALM      29.89R

YUCATAN PENINSULA

CITY           SKY/WX    TMP DP  RH WIND       PRES   REMARKS
CAMPECHE       MOSUNNY   86  73  66 SE5       29.98R HX  93
CANCUN         MOSUNNY   84  75  74 E6        30.03R HX  92
CHETUMAL       MOSUNNY   84  75  74 CALM      29.98R HX  92
CD. DEL CARMEN MOSUNNY   82  75  78 SE17      29.98
COZUMEL        MOSUNNY   77  75  94 SE6       30.02R
MERIDA         MOSUNNY   79  72  78 E6        30.02R
MINATITLAN     MOSUNNY   81  72  74 N8        29.95
TAPACHULA      MOSUNNY   79  72  78 CALM      29.86R
TUX. GUTIERREZ MOSUNNY   68  68 100 SW5       29.98S
VILLAHERMOSA   MOSUNNY   79  73  83 E6        29.97R

CENTRAL AMERICA

CITY           SKY/WX    TMP DP  RH WIND       PRES   REMARKS
BELIZE CITY    MOSUNNY   82  77  83 E3        29.99R HX  91
MANAGUA        MOSUNNY   79  72  78 SE5       29.83R

CARIBBEAN

CITY           SKY/WX    TMP DP  RH WIND       PRES   REMARKS
ARUBA          MOSUNNY   84  75  74 E20       29.94S HX  92
CURACAO        MOSUNNY   84  75  74 E15       29.97S HX  92
KINGSTON       MOSUNNY   84  72  65 N6        30.00S
SAN JUAN       PTSUNNY   82  73  74 SE3       30.09S
SANTO DOMINGO  PTSUNNY   81  75  83 E9        30.06R
ST. CROIX      MOSUNNY   86  72  62 E15       30.08R HX  92
ST. KITTS      MOSUNNY   84  75  74 E17       30.06S HX  92
ST. MAARTEN    MOSUNNY   84  72  65 E13       30.09R
ST. THOMAS     PTSUNNY   84  73  70 E13       30.08R HX  91

$$



USA.gov is the U.S. government's official web portal to all federal, state and local government web resources and services.